Location: Unspecified
(0.0000°N, 0.0000°E)
Time: 11:33:16
(UTC+00:00)

BEESAT 3 - Visible Passes

Search period start: 15 December 2019 00:00
Search period end: 25 December 2019 00:00
Orbit: 478 x 530 km, 64.9° (Epoch: 14 December)

Date Brightness Start Highest point End Pass type
(mag) Time Alt. Az. Time Alt. Az. Time Alt. Az.
15 Dec ? 04:45:27 10° SSW 04:49:10 58° ESE 04:52:57 10° NNE visible
16 Dec ? 04:26:02 10° S 04:29:43 52° ESE 04:33:28 10° NE visible
17 Dec ? 04:06:37 10° S 04:10:16 47° ESE 04:13:58 10° NE visible
